Skip Page Navigation
NASA JPL Caltech
NASA Logo - Jet Propulsion Laboratory + View the NASA Portal
+ Center for Near-Earth Object Studies
JPL Home Earth Solar System Stars & Galaxies Technology
JPL Solar System Dynamics
BODIES ORBITS EPHEMERIDES TOOLS PHYSICAL DATA DISCOVERY FAQ SITE MAP
JPL Small-Body Database Browser
Search: [ help ]  
(2016 SA36)
Classification: Mars-crossing Asteroid          SPK-ID: 3760214
Ephemeris | Orbit Diagram | Orbital Elements | Mission Design | Physical Parameters ]

[ show orbit diagram ]
Orbital Elements at Epoch 2459200.5 (2020-Dec-17.0) TDB
Reference: JPL 6 (heliocentric ecliptic J2000)
 Element Value Uncertainty (1-sigma)   Units 
e .5357763790983806 0.0011892  
a 3.156538142915962 0.0089731 au
q 1.465339566218521 0.00041199 au
i 24.15078480566381 0.01005 deg
node 15.33827505091327 0.019908 deg
peri 298.1577371799818 0.030787 deg
M 274.8578491785364 1.1786 deg
tp 2459684.959085961184
(2022-Apr-15.45908596)
8.7721 TDB
period 2048.401047698929
5.61
8.7344
0.02391
d
yr
n .1757468345392647 0.00074939 deg/d
Q 4.847736719613402 0.013781 au
  Orbit Determination Parameters
   # obs. used (total)      53  
   data-arc span      31 days  
   first obs. used      2016-09-28  
   last obs. used      2016-10-29  
   planetary ephem.      DE441  
   SB-pert. ephem.      SB441-N16  
   condition code      7  
   norm. resid. RMS      .38987  
   source      ORB  
   producer      Otto Matic  
   solution date      2021-Apr-15 17:44:43  

Additional Information
 Earth MOID = .590285 au 
 Jupiter MOID = 1.52461 au 
 T_jup = 2.849 
[ show covariance matrix ]

Ephemeris | Orbit Diagram | Orbital Elements | Mission Design | Physical Parameters ]

Physical Parameter Table
Parameter Symbol Value Units Sigma Reference Notes
absolute magnitude H 19.2   n/a E2016-UA7  
Ephemeris | Orbit Diagram | Orbital Elements | Mission Design | Physical Parameters ]
ABOUT SSD CREDITS/AWARDS PRIVACY/COPYRIGHT GLOSSARY LINKS
FirstGov 2021-May-10 09:08 UT
(server date/time)  
NASA Home Page
Site Manager:   Ryan S. Park
Webmaster  Alan B. Chamberlin